GW4118 Weather Reports


Display with metric or nautical units.
time (UTC)temp
F
wind
direction
speed
MPH
gust
MPH
rain 1hr
in
rain 24hr
in
rain mn
in
humidity
%
barometer
mb
20260504202527 68 258 3.0 9.0 0.00 0.00 0.00 40 1005.5
20260504202023 68 259 3.0 10.0 0.00 0.00 0.00 39 1005.6
20260504201522 69 251 4.0 8.0 0.00 0.00 0.00 41 1005.6
20260504201022 68 209 3.0 7.0 0.00 0.00 0.00 41 1005.6
20260504200521 68 250 2.0 8.0 0.00 0.00 0.00 42 1005.7
20260504200021 68 201 3.0 8.0 0.00 0.00 0.00 41 1005.7
20260504195519 68 241 1.0 9.0 0.00 0.00 0.00 41 1005.7
20260504195019 68 252 3.0 6.0 0.00 0.00 0.00 43 1005.9
20260504194522 67 253 2.0 8.0 0.00 0.00 0.00 43 1005.9
20260504194118 67 236 4.0 8.0 0.00 0.00 0.00 43 1005.9
20260504193617 67 246 4.0 8.0 0.00 0.00 0.00 43 1006.0
20260504193017 67 235 3.0 7.0 0.00 0.00 0.00 47 1006.1
20260504192515 66 287 1.0 7.0 0.00 0.00 0.00 45 1006.1
20260504192017 65 236 2.0 7.0 0.00 0.00 0.00 48 1006.2
20260504191615 65 237 3.0 9.0 0.00 0.00 0.00 46 1006.1
20260504191016 66 235 5.0 11.0 0.00 0.00 0.00 44 1006.2
20260504190514 66 271 4.0 11.0 0.00 0.00 0.00 44 1006.1
20260504190014 66 260 5.0 9.0 0.00 0.00 0.00 45 1006.2
20260504185512 65 246 4.0 9.0 0.00 0.00 0.00 45 1006.2
20260504185011 64 265 3.0 9.0 0.00 0.00 0.00 49 1006.2
20260504184511 63 275 3.0 8.0 0.00 0.00 0.00 50 1006.4
20260504184014 62 192 2.0 8.0 0.00 0.00 0.00 50 1006.3
20260504183511 62 290 3.0 8.0 0.00 0.00 0.00 51 1006.4
20260504183010 63 302 2.0 10.0 0.00 0.00 0.00 48 1006.4
20260504182513 62 263 4.0 10.0 0.00 0.00 0.00 50 1006.5
20260504182009 61 234 3.0 8.0 0.00 0.00 0.00 53 1006.5
20260504181509 61 257 2.0 6.0 0.00 0.00 0.00 53 1006.6
20260504181009 60 250 2.0 6.0 0.00 0.00 0.00 54 1006.6
20260504180510 60 259 2.0 6.0 0.00 0.00 0.00 56 1006.7
20260504180008 59 318 0.0 2.0 0.00 0.00 0.00 58 1006.7
20260504175513 59 318 0.0 2.0 0.00 0.00 0.00 58 1006.6
20260504175012 59 318 0.0 4.0 0.00 0.00 0.00 60 1006.6
20260504174511 58 318 0.0 4.0 0.00 0.00 0.00 60 1006.6
20260504174008 58 261 1.0 4.0 0.00 0.00 0.00 60 1006.7
20260504173508 58 272 1.0 4.0 0.00 0.00 0.00 62 1006.7
20260504173008 58 243 1.0 5.0 0.00 0.00 0.00 61 1006.8
20260504172508 58 309 2.0 9.0 0.00 0.00 0.00 61 1006.9
20260504172008 58 318 2.0 9.0 0.00 0.00 0.00 58 1007.0
20260504171507 59 315 2.0 8.0 0.00 0.00 0.00 56 1007.0
20260504171007 60 315 3.0 12.0 0.00 0.00 0.00 53 1006.9
20260504170506 61 308 5.0 12.0 0.00 0.00 0.00 48 1006.6
20260504151053 60 204 2.0 4.0 0.00 0.00 0.00 50 1006.2
20260504150553 60 247 2.0 7.0 0.00 0.00 0.00 50 1006.4
20260504141039 56 257 2.0 9.0 0.00 0.00 0.00 58 1007.3
20260504140538 56 201 6.0 9.0 0.00 0.00 0.00 57 1007.4
20260504130525 51 211 3.0 9.0 0.00 0.00 0.00 64 1008.3
20260504110555 34 210 0.0 0.0 0.00 0.00 0.00 92 1009.0
20260504100538 30 210 0.0 1.0 0.00 0.00 0.00 93 1008.9
20260504081530 28 210 0.0 0.0 0.00 0.00 0.00 92 1008.7
20260504081030 28 210 0.0 0.0 0.00 0.00 0.00 92 1008.7
20260504080530 28 210 0.0 0.0 0.00 0.00 0.00 92 1008.6
20260504050511 31 210 0.0 2.0 0.00 0.00 0.00 87 1008.3
20260504050010 31 210 0.0 2.0 0.00 0.00 0.00 87 1008.3
20260504045509 31 210 0.0 2.0 0.00 0.00 0.00 87 1008.3
20260504045108 31 210 0.0 2.0 0.00 0.00 0.00 86 1008.3
20260504044513 31 210 0.0 1.0 0.00 0.00 0.00 86 1008.4
20260504044007 32 210 0.0 0.0 0.00 0.00 0.00 86 1008.3
20260504043505 32 210 0.0 0.0 0.00 0.00 0.00 86 1008.4
20260504043006 32 210 0.0 0.0 0.00 0.00 0.00 85 1008.4
20260504042504 32 210 0.0 0.0 0.00 0.00 0.00 85 1008.4
20260504042003 32 210 0.0 0.0 0.00 0.00 0.00 85 1008.3
20260504041502 32 210 0.0 0.0 0.00 0.00 0.00 85 1008.3
20260504041002 33 210 0.0 2.0 0.00 0.00 0.00 84 1008.3
20260504040501 33 210 0.0 2.0 0.00 0.00 0.00 84 1008.3
20260504040117 33 210 0.0 2.0 0.00 0.00 0.00 83 1008.3
20260504035602 33 210 0.0 0.0 0.00 0.00 0.00 83 1008.3
20260504035059 33 210 0.0 1.0 0.00 0.00 0.00 83 1008.2
20260504034610 34 210 0.0 1.0 0.00 0.00 0.00 83 1008.2
20260504034056 34 210 0.0 0.0 0.00 0.00 0.00 83 1008.2
20260504033558 34 210 0.0 2.0 0.00 0.00 0.00 83 1008.2
20260504033056 34 210 0.0 1.0 0.00 0.00 0.00 83 1008.1
20260504032554 34 210 0.0 1.0 0.00 0.00 0.00 82 1008.1
20260504032053 34 210 0.0 0.0 0.00 0.00 0.00 81 1008.0
20260504031553 35 210 0.0 0.0 0.00 0.00 0.00 81 1008.1
20260504031052 35 210 0.0 2.0 0.00 0.00 0.00 81 1008.1
20260504030551 35 210 0.0 2.0 0.00 0.00 0.00 81 1008.1
20260504030051 35 210 0.0 2.0 0.00 0.00 0.00 80 1008.1
20260504025552 35 210 0.0 3.0 0.00 0.01 0.00 80 1008.1
20260504025050 36 210 0.0 3.0 0.00 0.01 0.00 80 1008.2
20260504024549 36 209 0.0 3.0 0.00 0.01 0.00 80 1008.1
20260504024048 36 209 1.0 3.0 0.00 0.01 0.00 80 1008.1
20260504023547 36 252 0.0 3.0 0.00 0.01 0.00 79 1008.2
20260504023046 37 252 1.0 2.0 0.00 0.01 0.00 77 1008.2
20260504022545 37 252 0.0 0.0 0.00 0.01 0.00 78 1008.2
20260504022045 37 252 0.0 0.0 0.00 0.01 0.00 76 1008.1
20260504021547 37 252 0.0 0.0 0.00 0.01 0.00 74 1008.1
20260504021042 38 252 0.0 0.0 0.00 0.01 0.00 74 1008.1
20260504020543 38 252 0.0 0.0 0.00 0.01 0.00 73 1008.1
20260504020041 38 252 0.0 0.0 0.00 0.01 0.00 72 1008.1
20260504015540 38 252 0.0 0.0 0.00 0.02 0.00 71 1008.1
20260504015039 39 252 0.0 0.0 0.00 0.02 0.00 71 1008.0
20260504014541 39 252 0.0 0.0 0.00 0.02 0.00 70 1008.0
20260504014036 40 252 0.0 0.0 0.00 0.02 0.00 70 1008.0
20260504013535 40 252 0.0 0.0 0.00 0.02 0.00 68 1007.9
20260504013044 40 252 0.0 0.0 0.00 0.02 0.00 66 1008.0
20260504012535 41 252 0.0 0.0 0.00 0.02 0.00 66 1008.0
20260504012036 41 252 0.0 0.0 0.00 0.02 0.00 67 1007.9
20260504011537 41 252 0.0 0.0 0.00 0.02 0.00 64 1007.8
20260504011033 41 252 0.0 2.0 0.00 0.02 0.00 63 1007.8
20260504010533 42 252 0.0 2.0 0.00 0.02 0.00 63 1007.7
20260504010036 42 252 0.0 0.0 0.00 0.02 0.00 61 1007.7
20260504005533 43 252 0.0 2.0 0.00 0.02 0.00 59 1007.6
20260504005033 43 252 0.0 2.0 0.00 0.02 0.00 59 1007.6
20260504004533 43 252 0.0 2.0 0.00 0.02 0.00 59 1007.5
20260504004033 44 252 0.0 2.0 0.00 0.02 0.00 58 1007.4
20260504003534 44 252 0.0 2.0 0.00 0.02 0.00 57 1007.2
20260504003036 44 252 0.0 4.0 0.00 0.02 0.00 57 1007.2
20260504002532 45 252 0.0 4.0 0.00 0.02 0.00 56 1007.1
20260504002032 45 252 0.0 4.0 0.00 0.02 0.00 54 1007.0
20260504001538 45 263 2.0 4.0 0.00 0.02 0.00 55 1007.0
20260504001032 45 292 1.0 9.0 0.00 0.02 0.00 54 1007.0
20260504000531 46 227 1.0 6.0 0.00 0.02 0.00 54 1006.9
20260504000032 46 227 1.0 9.0 0.00 0.02 0.00 52 1006.8
20260503235530 46 252 2.0 5.0 0.00 0.03 0.00 51 1006.7
20260503235030 46 277 0.0 3.0 0.00 0.03 0.00 52 1006.6
20260503234531 47 278 1.0 3.0 0.00 0.03 0.00 52 1006.6
20260503234030 47 278 1.0 8.0 0.00 0.03 0.00 51 1006.5
20260503233531 47 273 3.0 9.0 0.00 0.03 0.00 49 1006.4
20260503233030 47 294 3.0 9.0 0.00 0.03 0.00 50 1006.4
20260503232529 47 267 2.0 9.0 0.00 0.03 0.00 48 1006.3
20260503232029 48 262 2.0 5.0 0.00 0.03 0.00 49 1006.2
20260503231529 48 284 1.0 4.0 0.00 0.03 0.00 49 1006.2
20260503231030 48 284 1.0 4.0 0.00 0.03 0.00 47 1006.2
20260503230530 48 276 0.0 7.0 0.00 0.03 0.00 46 1006.1
20260503230029 49 276 3.0 10.0 0.00 0.03 0.00 46 1006.0
20260503225529 49 267 3.0 13.0 0.00 0.04 0.00 45 1006.0
20260503225031 49 304 5.0 13.0 0.00 0.04 0.00 43 1005.9
20260503224530 49 255 2.0 10.0 0.00 0.04 0.00 44 1005.9
20260503224028 50 307 3.0 10.0 0.00 0.04 0.00 44 1005.7
20260503223527 50 271 5.0 10.0 0.00 0.04 0.00 45 1005.7
20260503223027 50 281 4.0 10.0 0.00 0.04 0.00 43 1005.7
20260503222528 50 309 2.0 15.0 0.00 0.04 0.00 42 1005.6
20260503222026 50 292 6.0 15.0 0.00 0.04 0.00 42 1005.4
20260503221526 50 360 6.0 13.0 0.00 0.04 0.00 41 1005.5
20260503221026 51 285 6.0 16.0 0.00 0.04 0.00 42 1005.4
20260503220525 51 328 6.0 16.0 0.00 0.04 0.00 39 1005.2
20260503220027 51 292 5.0 19.0 0.00 0.04 0.00 40 1005.2
20260503215524 51 319 7.0 19.0 0.00 0.05 0.00 39 1005.1
20260503215024 51 293 6.0 12.0 0.00 0.05 0.00 41 1005.1
20260503214527 52 284 5.0 12.0 0.00 0.05 0.00 42 1005.0
20260503214023 52 265 5.0 12.0 0.00 0.05 0.00 41 1005.0
20260503213523 52 297 3.0 12.0 0.00 0.05 0.00 40 1005.0
20260503213023 53 275 4.0 9.0 0.00 0.05 0.00 40 1004.9
20260503212521 54 338 3.0 11.0 0.00 0.05 0.00 41 1004.8
20260503212023 54 290 2.0 12.0 0.00 0.05 0.00 42 1004.8
20260503211520 54 265 5.0 12.0 0.00 0.05 0.00 42 1004.8
20260503211020 53 245 3.0 10.0 0.00 0.05 0.00 43 1004.6
20260503210519 53 292 3.0 10.0 0.00 0.05 0.00 42 1004.7
20260503210019 52 300 4.0 10.0 0.00 0.05 0.00 45 1004.8
20260503205520 52 294 5.0 9.0 0.00 0.06 0.00 44 1004.8
20260503205018 52 290 4.0 8.0 0.00 0.06 0.00 45 1004.8
20260503204521 52 329 2.0 6.0 0.00 0.06 0.00 45 1004.7
20260503204017 52 279 2.0 9.0 0.00 0.06 0.00 46 1004.7
20260503203517 52 296 3.0 9.0 0.00 0.06 0.00 45 1004.6
20260503203021 52 288 2.0 14.0 0.00 0.06 0.00 45 1004.7